TimeMDT,TemperatureF,Dew PointF,Humidity,Sea Level PressureIn,VisibilityMPH,Wind Direction,Wind SpeedMPH,Gust SpeedMPH,PrecipitationIn,Events,Conditions,WindDirDegrees,DateUTC
12:53 AM,68.0,37.9,33,29.82,10.0,NNW,18.4,-,N/A,,Clear,330,2013-06-16 06:53:00
1:53 AM,66.0,39.0,37,29.86,10.0,NE,9.2,-,N/A,,Clear,40,2013-06-16 07:53:00
2:53 AM,60.1,41.0,49,29.85,10.0,ENE,10.4,-,N/A,,Clear,70,2013-06-16 08:53:00
3:53 AM,57.9,39.9,51,29.88,10.0,NNE,9.2,-,N/A,,Clear,30,2013-06-16 09:53:00
4:53 AM,57.9,41.0,53,29.90,10.0,NNE,6.9,-,N/A,,Clear,20,2013-06-16 10:53:00
5:53 AM,57.9,41.0,53,29.96,10.0,NE,8.1,-,N/A,,Clear,50,2013-06-16 11:53:00
6:53 AM,59.0,50.0,72,29.96,10.0,ENE,15.0,-,N/A,,Clear,70,2013-06-16 12:53:00
7:53 AM,63.0,50.0,63,29.96,10.0,NE,9.2,-,N/A,,Clear,40,2013-06-16 13:53:00
8:53 AM,66.9,53.1,61,29.98,10.0,ENE,6.9,-,N/A,,Clear,60,2013-06-16 14:53:00
9:53 AM,70.0,51.1,51,29.96,10.0,SSW,5.8,-,N/A,,Clear,200,2013-06-16 15:53:00
10:53 AM,73.0,48.0,41,29.96,10.0,SSW,5.8,-,N/A,,Clear,200,2013-06-16 16:53:00
11:53 AM,77.0,46.0,33,29.93,10.0,Variable,5.8,-,N/A,,Clear,0,2013-06-16 17:53:00
12:53 PM,80.1,43.0,27,29.89,10.0,SSW,6.9,-,N/A,,Clear,200,2013-06-16 18:53:00
1:53 PM,84.0,44.1,25,29.85,10.0,WSW,9.2,17.3,N/A,,Clear,240,2013-06-16 19:53:00
2:53 PM,82.9,45.0,26,29.84,10.0,SE,13.8,18.4,0.00,Rain,Light Rain,130,2013-06-16 20:53:00
3:53 PM,78.1,41.0,27,29.88,10.0,SSW,12.7,25.3,0.00,Rain,Light Rain,210,2013-06-16 21:53:00
4:53 PM,82.9,42.1,24,29.83,10.0,South,11.5,18.4,0.00,,Clear,180,2013-06-16 22:53:00
5:53 PM,82.0,41.0,23,29.82,10.0,SSW,12.7,18.4,N/A,,Clear,200,2013-06-16 23:53:00
6:53 PM,75.9,43.0,31,29.88,10.0,NE,21.9,26.5,N/A,,Clear,40,2013-06-17 00:53:00
7:53 PM,70.0,44.1,39,29.94,10.0,North,15.0,-,N/A,,Partly Cloudy,10,2013-06-17 01:53:00
8:53 PM,69.1,42.1,38,29.92,10.0,NNE,15.0,-,0.00,,Partly Cloudy,30,2013-06-17 02:53:00
9:53 PM,64.9,43.0,45,29.96,10.0,NNW,9.2,-,N/A,,Clear,340,2013-06-17 03:53:00
10:53 PM,66.9,42.1,40,29.95,10.0,North,9.2,-,N/A,,Partly Cloudy,350,2013-06-17 04:53:00
11:53 PM,64.9,42.1,43,29.94,10.0,North,11.5,-,N/A,,Clear,350,2013-06-17 05:53:00